Year,Month,Day,Hour,Minute,Value (Times are PST for temperature in C)
2017,07,19,00,00,16.90
2017,07,19,00,01,16.80
2017,07,19,00,02,16.90
2017,07,19,00,03,16.90
2017,07,19,00,04,16.90
2017,07,19,00,05,16.90
2017,07,19,00,06,16.90
2017,07,19,00,07,16.90
2017,07,19,00,08,16.90
2017,07,19,00,09,16.90
2017,07,19,00,10,16.90
2017,07,19,00,11,17.00
2017,07,19,00,12,17.00
2017,07,19,00,13,17.10
2017,07,19,00,14,17.10
2017,07,19,00,15,17.10
2017,07,19,00,16,17.10
2017,07,19,00,17,17.00
2017,07,19,00,18,17.00
2017,07,19,00,19,17.00
2017,07,19,00,20,17.00
2017,07,19,00,21,17.00
2017,07,19,00,22,17.00
2017,07,19,00,23,16.90
2017,07,19,00,24,16.90
2017,07,19,00,25,16.80
2017,07,19,00,26,16.80
2017,07,19,00,27,16.70
2017,07,19,00,28,16.70
2017,07,19,00,29,16.60
2017,07,19,00,30,16.60
2017,07,19,00,31,16.60
2017,07,19,00,32,16.60
2017,07,19,00,33,16.60
2017,07,19,00,34,16.50
2017,07,19,00,35,16.40
2017,07,19,00,36,16.40
2017,07,19,00,37,16.30
2017,07,19,00,38,16.30
2017,07,19,00,39,16.30
2017,07,19,00,40,16.30
2017,07,19,00,41,16.20
2017,07,19,00,42,16.20
2017,07,19,00,43,16.30
2017,07,19,00,44,16.30
2017,07,19,00,45,16.30
2017,07,19,00,46,16.30
2017,07,19,00,47,16.30
2017,07,19,00,48,16.30
2017,07,19,00,49,16.30
2017,07,19,00,50,16.30
2017,07,19,00,51,16.30
2017,07,19,00,52,16.30
2017,07,19,00,53,16.30
2017,07,19,00,54,16.40
2017,07,19,00,55,16.30
2017,07,19,00,56,16.30
2017,07,19,00,57,16.30
2017,07,19,00,58,16.30
2017,07,19,00,59,16.30
2017,07,19,01,00,16.20
2017,07,19,01,01,16.20
2017,07,19,01,02,16.20
2017,07,19,01,03,16.20
2017,07,19,01,04,16.20
2017,07,19,01,05,16.20
2017,07,19,01,06,16.20
2017,07,19,01,07,16.20
2017,07,19,01,08,16.20
2017,07,19,01,09,16.20
2017,07,19,01,10,16.10
2017,07,19,01,11,16.10
2017,07,19,01,12,16.10
2017,07,19,01,13,16.00
2017,07,19,01,14,16.00
2017,07,19,01,15,16.00
2017,07,19,01,16,15.90
2017,07,19,01,17,15.90
2017,07,19,01,18,15.90
2017,07,19,01,19,15.80
2017,07,19,01,20,15.80
2017,07,19,01,21,15.80
2017,07,19,01,22,15.80
2017,07,19,01,23,15.70
2017,07,19,01,24,15.70
2017,07,19,01,25,15.70
2017,07,19,01,26,15.70
2017,07,19,01,27,15.70
2017,07,19,01,28,15.70
2017,07,19,01,29,15.80
2017,07,19,01,30,15.80
2017,07,19,01,31,15.80
2017,07,19,01,32,15.80
2017,07,19,01,33,15.80
2017,07,19,01,34,15.90
2017,07,19,01,35,15.90
2017,07,19,01,36,15.90
2017,07,19,01,37,15.90
2017,07,19,01,38,15.90
2017,07,19,01,39,15.90
2017,07,19,01,40,15.80
2017,07,19,01,41,15.80
2017,07,19,01,42,15.80
2017,07,19,01,43,15.80
2017,07,19,01,44,15.70
2017,07,19,01,45,15.70
2017,07,19,01,46,15.60
2017,07,19,01,47,15.50
2017,07,19,01,48,15.50
2017,07,19,01,49,15.40
2017,07,19,01,50,15.40
2017,07,19,01,51,15.30
2017,07,19,01,52,15.30
2017,07,19,01,53,15.30
2017,07,19,01,54,15.30
2017,07,19,01,55,15.20
2017,07,19,01,56,15.20
2017,07,19,01,57,15.10
2017,07,19,01,58,15.10
2017,07,19,01,59,15.10
2017,07,19,02,00,15.00
2017,07,19,02,01,15.00
2017,07,19,02,02,15.00
2017,07,19,02,03,15.00
2017,07,19,02,04,15.00
2017,07,19,02,05,15.00
2017,07,19,02,06,15.00
2017,07,19,02,07,15.00
2017,07,19,02,08,15.00
2017,07,19,02,09,15.00
2017,07,19,02,10,15.00
2017,07,19,02,11,15.00
2017,07,19,02,12,15.00
2017,07,19,02,13,15.00
2017,07,19,02,14,15.00
2017,07,19,02,15,15.00
2017,07,19,02,16,15.00
2017,07,19,02,17,15.00
2017,07,19,02,18,15.00
2017,07,19,02,19,14.90
2017,07,19,02,20,14.90
2017,07,19,02,21,14.90
2017,07,19,02,22,14.80
2017,07,19,02,23,14.80
2017,07,19,02,24,14.80
2017,07,19,02,25,14.80
2017,07,19,02,26,14.80
2017,07,19,02,27,14.80
2017,07,19,02,28,14.80
2017,07,19,02,29,14.80
2017,07,19,02,30,14.80
2017,07,19,02,31,14.70
2017,07,19,02,32,14.70
2017,07,19,02,33,14.70
2017,07,19,02,34,14.70
2017,07,19,02,35,14.70
2017,07,19,02,36,14.70
2017,07,19,02,37,14.70
2017,07,19,02,38,14.70
2017,07,19,02,39,14.80
2017,07,19,02,40,14.80
2017,07,19,02,41,14.90
2017,07,19,02,42,14.90
2017,07,19,02,43,14.90
2017,07,19,02,44,14.90
2017,07,19,02,45,14.90
2017,07,19,02,46,14.90
2017,07,19,02,47,14.90
2017,07,19,02,48,14.90
2017,07,19,02,49,14.80
2017,07,19,02,50,14.80
2017,07,19,02,51,14.80
2017,07,19,02,52,14.70
2017,07,19,02,53,14.70
2017,07,19,02,54,14.70
2017,07,19,02,55,14.70
2017,07,19,02,56,14.70
2017,07,19,02,57,14.70
2017,07,19,02,58,14.70
2017,07,19,02,59,14.70
2017,07,19,03,00,14.70
2017,07,19,03,01,14.80
2017,07,19,03,02,14.80
2017,07,19,03,03,14.80
2017,07,19,03,04,14.80
2017,07,19,03,05,14.80
2017,07,19,03,06,14.80
2017,07,19,03,07,14.80
2017,07,19,03,08,14.80
2017,07,19,03,09,14.80
2017,07,19,03,10,14.80
2017,07,19,03,11,14.70
2017,07,19,03,12,14.70
2017,07,19,03,13,14.70
2017,07,19,03,14,14.70
2017,07,19,03,15,14.70
2017,07,19,03,16,14.70
2017,07,19,03,17,14.80
2017,07,19,03,18,14.80
2017,07,19,03,19,14.90
2017,07,19,03,20,15.00
2017,07,19,03,21,15.00
2017,07,19,03,22,15.00
2017,07,19,03,23,15.00
2017,07,19,03,24,15.00
2017,07,19,03,25,15.00
2017,07,19,03,26,15.00
2017,07,19,03,27,15.00
2017,07,19,03,28,15.00
2017,07,19,03,29,15.00
2017,07,19,03,30,15.00
2017,07,19,03,31,15.00
2017,07,19,03,32,15.00
2017,07,19,03,33,15.00
2017,07,19,03,34,15.00
2017,07,19,03,35,15.00
2017,07,19,03,36,15.00
2017,07,19,03,37,15.00
2017,07,19,03,38,15.00
2017,07,19,03,39,15.00
2017,07,19,03,40,14.80
2017,07,19,03,41,14.80
2017,07,19,03,42,14.70
2017,07,19,03,43,14.70
2017,07,19,03,44,14.60
2017,07,19,03,45,14.50
2017,07,19,03,46,14.40
2017,07,19,03,47,14.30
2017,07,19,03,48,14.30
2017,07,19,03,49,14.20
2017,07,19,03,50,14.20
2017,07,19,03,51,14.20
2017,07,19,03,52,14.10
2017,07,19,03,53,14.10
2017,07,19,03,54,14.10
2017,07,19,03,55,14.10
2017,07,19,03,56,14.30
2017,07,19,03,57,14.40
2017,07,19,03,58,14.50
2017,07,19,03,59,14.60
2017,07,19,04,00,14.60
2017,07,19,04,01,14.60
2017,07,19,04,02,14.60
2017,07,19,04,03,14.60
2017,07,19,04,04,14.60
2017,07,19,04,05,14.70
2017,07,19,04,06,14.70
2017,07,19,04,07,14.70
2017,07,19,04,08,14.80
2017,07,19,04,09,14.80
2017,07,19,04,10,14.80
2017,07,19,04,11,14.80
2017,07,19,04,12,14.80
2017,07,19,04,13,14.70
2017,07,19,04,14,14.70
2017,07,19,04,15,14.80
2017,07,19,04,16,14.80
2017,07,19,04,17,14.80
2017,07,19,04,18,14.80
2017,07,19,04,19,14.70
2017,07,19,04,20,14.70
2017,07,19,04,21,14.50
2017,07,19,04,22,14.40
2017,07,19,04,23,14.20
2017,07,19,04,24,14.10
2017,07,19,04,25,13.90
2017,07,19,04,26,13.80
2017,07,19,04,27,13.70
2017,07,19,04,28,13.70
2017,07,19,04,29,13.60
2017,07,19,04,30,13.60
2017,07,19,04,31,13.60
2017,07,19,04,32,13.60
2017,07,19,04,33,13.70
2017,07,19,04,34,13.70
2017,07,19,04,35,13.70
2017,07,19,04,36,13.60
2017,07,19,04,37,13.60
2017,07,19,04,38,13.60
2017,07,19,04,39,13.60
2017,07,19,04,40,13.50
2017,07,19,04,41,13.50
2017,07,19,04,42,13.40
2017,07,19,04,43,13.40
2017,07,19,04,44,13.40
2017,07,19,04,45,13.40
2017,07,19,04,46,13.40
2017,07,19,04,47,13.50
2017,07,19,04,48,13.50
2017,07,19,04,49,13.60
2017,07,19,04,50,13.60
2017,07,19,04,51,13.70
2017,07,19,04,52,13.70
2017,07,19,04,53,13.70
2017,07,19,04,54,13.60
2017,07,19,04,55,13.60
2017,07,19,04,56,13.50
2017,07,19,04,57,13.40
2017,07,19,04,58,13.30
2017,07,19,04,59,13.30
2017,07,19,05,00,13.30
2017,07,19,05,01,13.20
2017,07,19,05,02,13.20
2017,07,19,05,03,13.20
2017,07,19,05,04,13.10
2017,07,19,05,05,13.10
2017,07,19,05,06,13.10
2017,07,19,05,07,13.10
2017,07,19,05,08,13.10
2017,07,19,05,09,13.00
2017,07,19,05,10,13.10
2017,07,19,05,11,13.10
2017,07,19,05,12,13.10
2017,07,19,05,13,13.10
2017,07,19,05,14,13.10
2017,07,19,05,15,13.20
2017,07,19,05,16,13.20
2017,07,19,05,17,13.20
2017,07,19,05,18,13.30
2017,07,19,05,19,13.30
2017,07,19,05,20,13.30
2017,07,19,05,21,13.40
2017,07,19,05,22,13.40
2017,07,19,05,23,13.50
2017,07,19,05,24,13.60
2017,07,19,05,25,13.70
2017,07,19,05,26,13.70
2017,07,19,05,27,13.80
2017,07,19,05,28,13.80
2017,07,19,05,29,13.80
2017,07,19,05,30,13.80
2017,07,19,05,31,13.80
2017,07,19,05,32,13.70
2017,07,19,05,33,13.70
2017,07,19,05,34,13.60
2017,07,19,05,35,13.60
2017,07,19,05,36,13.50
2017,07,19,05,37,13.40
2017,07,19,05,38,13.30
2017,07,19,05,39,13.20
2017,07,19,05,40,13.10
2017,07,19,05,41,13.10
2017,07,19,05,42,13.00
2017,07,19,05,43,12.90
2017,07,19,05,44,12.90
2017,07,19,05,45,12.90
2017,07,19,05,46,12.90
2017,07,19,05,47,12.90
2017,07,19,05,48,12.90
2017,07,19,05,49,12.90
2017,07,19,05,50,12.90
2017,07,19,05,51,12.90
2017,07,19,05,52,12.90
2017,07,19,05,53,12.90
2017,07,19,05,54,12.80
2017,07,19,05,55,12.80
2017,07,19,05,56,12.80
2017,07,19,05,57,12.80
2017,07,19,05,58,12.80
2017,07,19,05,59,12.80
2017,07,19,06,00,12.80
2017,07,19,06,01,12.80
2017,07,19,06,02,12.80
2017,07,19,06,03,12.90
2017,07,19,06,04,13.00
2017,07,19,06,05,13.10
2017,07,19,06,06,13.20
2017,07,19,06,07,13.20
2017,07,19,06,08,13.20
2017,07,19,06,09,13.30
2017,07,19,06,10,13.30
2017,07,19,06,11,13.30
2017,07,19,06,12,13.40
2017,07,19,06,13,13.40
2017,07,19,06,14,13.50
2017,07,19,06,15,13.50
2017,07,19,06,16,13.60
2017,07,19,06,17,13.60
2017,07,19,06,18,13.80
2017,07,19,06,19,13.80
2017,07,19,06,20,13.90
2017,07,19,06,21,14.00
2017,07,19,06,22,14.10
2017,07,19,06,23,14.20
2017,07,19,06,24,14.30
2017,07,19,06,25,14.40
2017,07,19,06,26,14.50
2017,07,19,06,27,14.60
2017,07,19,06,28,14.70
2017,07,19,06,29,14.80
2017,07,19,06,30,14.80
2017,07,19,06,31,14.80
2017,07,19,06,32,14.80
2017,07,19,06,33,14.80
2017,07,19,06,34,14.80
2017,07,19,06,35,14.80
2017,07,19,06,36,14.80
2017,07,19,06,37,14.80
2017,07,19,06,38,14.80
2017,07,19,06,39,14.80
2017,07,19,06,40,14.70
2017,07,19,06,41,14.80
2017,07,19,06,42,14.80
2017,07,19,06,43,14.90
2017,07,19,06,44,15.00
2017,07,19,06,45,15.00
2017,07,19,06,46,15.00
2017,07,19,06,47,15.00
2017,07,19,06,48,15.10
2017,07,19,06,49,15.30
2017,07,19,06,50,15.40
2017,07,19,06,51,15.60
2017,07,19,06,52,15.80
2017,07,19,06,53,16.00
2017,07,19,06,54,16.20
2017,07,19,06,55,16.30
2017,07,19,06,56,16.50
2017,07,19,06,57,16.50
2017,07,19,06,58,16.60
2017,07,19,06,59,16.60
2017,07,19,07,00,16.70
2017,07,19,07,01,16.70
2017,07,19,07,02,16.90
2017,07,19,07,03,17.00
2017,07,19,07,04,17.20
2017,07,19,07,05,17.30
2017,07,19,07,06,17.40
2017,07,19,07,07,17.50
2017,07,19,07,08,17.60
2017,07,19,07,09,17.70
2017,07,19,07,10,17.80
2017,07,19,07,11,17.90
2017,07,19,07,12,18.00
2017,07,19,07,13,18.00
2017,07,19,07,14,18.10
2017,07,19,07,15,18.20
2017,07,19,07,16,18.20
2017,07,19,07,17,18.30
2017,07,19,07,18,18.30
2017,07,19,07,19,18.30
2017,07,19,07,20,18.20
2017,07,19,07,21,18.20
2017,07,19,07,22,18.00
2017,07,19,07,23,17.90
2017,07,19,07,24,17.80
2017,07,19,07,25,17.80
2017,07,19,07,26,17.70
2017,07,19,07,27,17.60
2017,07,19,07,28,17.60
2017,07,19,07,29,17.50
2017,07,19,07,30,17.50
2017,07,19,07,31,17.60
2017,07,19,07,32,17.60
2017,07,19,07,33,17.60
2017,07,19,07,34,17.70
2017,07,19,07,35,17.80
2017,07,19,07,36,17.90
2017,07,19,07,37,18.00
2017,07,19,07,38,18.00
2017,07,19,07,39,18.10
2017,07,19,07,40,18.20
2017,07,19,07,41,18.20
2017,07,19,07,42,18.30
2017,07,19,07,43,18.40
2017,07,19,07,44,18.50
2017,07,19,07,45,18.50
2017,07,19,07,46,18.60
2017,07,19,07,47,18.70
2017,07,19,07,48,18.70
2017,07,19,07,49,18.70
2017,07,19,07,50,18.70
2017,07,19,07,51,18.60
2017,07,19,07,52,18.60
2017,07,19,07,53,18.60
2017,07,19,07,54,18.60
2017,07,19,07,55,18.60
2017,07,19,07,56,18.60
2017,07,19,07,57,18.60
2017,07,19,07,58,18.60
2017,07,19,07,59,18.70
2017,07,19,08,00,18.70
2017,07,19,08,01,18.80
2017,07,19,08,02,18.80
2017,07,19,08,03,18.80
2017,07,19,08,04,18.80
2017,07,19,08,05,18.70
2017,07,19,08,06,18.80
2017,07,19,08,07,18.80
2017,07,19,08,08,18.80
2017,07,19,08,09,18.80
2017,07,19,08,10,18.80
2017,07,19,08,11,18.80
2017,07,19,08,12,18.80
2017,07,19,08,13,18.80
2017,07,19,08,14,18.80
2017,07,19,08,15,18.80
2017,07,19,08,16,18.70
2017,07,19,08,17,18.70
2017,07,19,08,18,18.70
2017,07,19,08,19,18.70
2017,07,19,08,20,18.80
2017,07,19,08,21,18.80
2017,07,19,08,22,18.80
2017,07,19,08,23,18.80
2017,07,19,08,24,18.80
2017,07,19,08,25,18.80
2017,07,19,08,26,18.80
2017,07,19,08,27,18.80
2017,07,19,08,28,18.80
2017,07,19,08,29,18.80
2017,07,19,08,30,18.90
2017,07,19,08,31,19.00
2017,07,19,08,32,19.00
2017,07,19,08,33,19.10
2017,07,19,08,34,19.20
2017,07,19,08,35,19.20
2017,07,19,08,36,19.30
2017,07,19,08,37,19.30
2017,07,19,08,38,19.40
2017,07,19,08,39,19.50
2017,07,19,08,40,19.50
2017,07,19,08,41,19.60
2017,07,19,08,42,19.60
2017,07,19,08,43,19.60
2017,07,19,08,44,19.60
2017,07,19,08,45,19.60
2017,07,19,08,46,19.60
2017,07,19,08,47,19.60
2017,07,19,08,48,19.60
2017,07,19,08,49,19.60
2017,07,19,08,50,19.60
2017,07,19,08,51,19.60
2017,07,19,08,52,19.70
2017,07,19,08,53,19.70
2017,07,19,08,54,19.70
2017,07,19,08,55,19.80
2017,07,19,08,56,19.90
2017,07,19,08,57,20.00
2017,07,19,08,58,20.10
2017,07,19,08,59,20.20
2017,07,19,09,00,20.20
2017,07,19,09,01,20.20
2017,07,19,09,02,20.10
2017,07,19,09,03,20.00
2017,07,19,09,04,19.90
2017,07,19,09,05,19.90
2017,07,19,09,06,20.00
2017,07,19,09,07,19.90
2017,07,19,09,08,19.90
2017,07,19,09,09,19.90
2017,07,19,09,10,19.90
2017,07,19,09,11,19.80
2017,07,19,09,12,19.80
2017,07,19,09,13,19.80
2017,07,19,09,14,19.80
2017,07,19,09,15,19.70
2017,07,19,09,16,19.60
2017,07,19,09,17,19.50
2017,07,19,09,18,19.40
2017,07,19,09,19,19.40
2017,07,19,09,20,19.50
2017,07,19,09,21,19.60
2017,07,19,09,22,19.70
2017,07,19,09,23,19.80
2017,07,19,09,24,19.90
2017,07,19,09,25,19.90
2017,07,19,09,26,20.00
2017,07,19,09,27,20.00
2017,07,19,09,28,20.00
2017,07,19,09,29,20.00
2017,07,19,09,30,20.00
2017,07,19,09,31,19.90
2017,07,19,09,32,19.80
2017,07,19,09,33,19.80
2017,07,19,09,34,19.80
2017,07,19,09,35,19.80
2017,07,19,09,36,19.80
2017,07,19,09,37,19.90
2017,07,19,09,38,19.90
2017,07,19,09,39,19.80
2017,07,19,09,40,19.80
2017,07,19,09,41,19.80
2017,07,19,09,42,19.70
2017,07,19,09,43,19.60
2017,07,19,09,44,19.60
2017,07,19,09,45,19.60
2017,07,19,09,46,19.60
2017,07,19,09,47,19.60
2017,07,19,09,48,19.50
2017,07,19,09,49,19.50
2017,07,19,09,50,19.50
2017,07,19,09,51,19.50
2017,07,19,09,52,19.40
2017,07,19,09,53,19.30
2017,07,19,09,54,19.40
2017,07,19,09,55,19.50
2017,07,19,09,56,19.50
2017,07,19,09,57,19.50
2017,07,19,09,58,19.50
2017,07,19,09,59,19.50
2017,07,19,10,00,19.60
2017,07,19,10,01,19.70
2017,07,19,10,02,19.70
2017,07,19,10,03,19.80
2017,07,19,10,04,19.90
2017,07,19,10,05,20.10
2017,07,19,10,06,20.30
2017,07,19,10,07,20.30
2017,07,19,10,08,20.30
2017,07,19,10,09,20.30
2017,07,19,10,10,20.30
2017,07,19,10,11,20.30
2017,07,19,10,12,20.20
2017,07,19,10,13,20.20
2017,07,19,10,14,20.20
2017,07,19,10,15,20.20
2017,07,19,10,16,20.20
2017,07,19,10,17,20.10
2017,07,19,10,18,20.00
2017,07,19,10,19,20.10
2017,07,19,10,20,20.20
2017,07,19,10,21,20.10
2017,07,19,10,22,20.10
2017,07,19,10,23,20.00
2017,07,19,10,24,19.90
2017,07,19,10,25,19.90
2017,07,19,10,26,19.90
2017,07,19,10,27,19.90
2017,07,19,10,28,19.80
2017,07,19,10,29,19.80
2017,07,19,10,30,19.80
2017,07,19,10,31,19.80
2017,07,19,10,32,19.70
2017,07,19,10,33,19.80
2017,07,19,10,34,19.90
2017,07,19,10,35,19.90
2017,07,19,10,36,19.90
2017,07,19,10,37,19.90
2017,07,19,10,38,19.90
2017,07,19,10,39,19.80
2017,07,19,10,40,19.80
2017,07,19,10,41,19.90
2017,07,19,10,42,19.90
2017,07,19,10,43,19.90
2017,07,19,10,44,19.90
2017,07,19,10,45,19.80
2017,07,19,10,46,19.80
2017,07,19,10,47,19.90
2017,07,19,10,48,19.80
2017,07,19,10,49,19.80
2017,07,19,10,50,19.80
2017,07,19,10,51,19.90
2017,07,19,10,52,19.90
2017,07,19,10,53,19.80
2017,07,19,10,54,19.80
2017,07,19,10,55,19.90
2017,07,19,10,56,19.80
2017,07,19,10,57,19.80
2017,07,19,10,58,19.80
2017,07,19,10,59,19.70
2017,07,19,11,00,19.70
2017,07,19,11,01,19.80
2017,07,19,11,02,20.00
2017,07,19,11,03,20.00
2017,07,19,11,04,20.00
2017,07,19,11,05,19.90
2017,07,19,11,06,19.90
2017,07,19,11,07,20.00
2017,07,19,11,08,20.20
2017,07,19,11,09,20.30
2017,07,19,11,10,20.30
2017,07,19,11,11,20.20
2017,07,19,11,12,20.20
2017,07,19,11,13,20.20
2017,07,19,11,14,20.30
2017,07,19,11,15,20.40
2017,07,19,11,16,20.50
2017,07,19,11,17,20.70
2017,07,19,11,18,20.60
2017,07,19,11,19,20.60
2017,07,19,11,20,20.50
2017,07,19,11,21,20.50
2017,07,19,11,22,20.50
2017,07,19,11,23,20.50
2017,07,19,11,24,20.60
2017,07,19,11,25,20.60
2017,07,19,11,26,20.60
2017,07,19,11,27,20.70
2017,07,19,11,28,20.80
2017,07,19,11,29,20.90
2017,07,19,11,30,20.80
2017,07,19,11,31,20.80
2017,07,19,11,32,20.80
2017,07,19,11,33,20.80
2017,07,19,11,34,20.80
2017,07,19,11,35,20.70
2017,07,19,11,36,20.70
2017,07,19,11,37,20.70
2017,07,19,11,38,20.90
2017,07,19,11,39,20.90
2017,07,19,11,40,20.90
2017,07,19,11,41,20.80
2017,07,19,11,42,20.80
2017,07,19,11,43,20.80
2017,07,19,11,44,20.70
2017,07,19,11,45,20.60
2017,07,19,11,46,20.50
2017,07,19,11,47,20.50
2017,07,19,11,48,20.50
2017,07,19,11,49,20.60
2017,07,19,11,50,20.80
2017,07,19,11,51,20.90
2017,07,19,11,52,20.90
2017,07,19,11,53,20.80
2017,07,19,11,54,20.70
2017,07,19,11,55,20.70
2017,07,19,11,56,20.60
2017,07,19,11,57,20.60
2017,07,19,11,58,20.70
2017,07,19,11,59,20.80
2017,07,19,12,00,20.80
2017,07,19,12,01,20.80
2017,07,19,12,02,20.80
2017,07,19,12,03,20.80
2017,07,19,12,04,20.80
2017,07,19,12,05,21.00
2017,07,19,12,06,21.00
2017,07,19,12,07,21.20
2017,07,19,12,08,21.20
2017,07,19,12,09,21.20
2017,07,19,12,10,21.30
2017,07,19,12,11,21.30
2017,07,19,12,12,21.20
2017,07,19,12,13,21.10
2017,07,19,12,14,21.20
2017,07,19,12,15,21.30
2017,07,19,12,16,21.30
2017,07,19,12,17,21.10
2017,07,19,12,18,20.90
2017,07,19,12,19,20.80
2017,07,19,12,20,20.70
2017,07,19,12,21,20.60
2017,07,19,12,22,20.60
2017,07,19,12,23,20.50
2017,07,19,12,24,20.50
2017,07,19,12,25,20.40
2017,07,19,12,26,20.50
2017,07,19,12,27,20.60
2017,07,19,12,28,20.70
2017,07,19,12,29,20.80
2017,07,19,12,30,20.90
2017,07,19,12,31,20.90
2017,07,19,12,32,20.80
2017,07,19,12,33,20.80
2017,07,19,12,34,20.70
2017,07,19,12,35,20.70
2017,07,19,12,36,20.70
2017,07,19,12,37,20.70
2017,07,19,12,38,20.60
2017,07,19,12,39,20.50
2017,07,19,12,40,20.40
2017,07,19,12,41,20.50
2017,07,19,12,42,20.50
2017,07,19,12,43,20.60
2017,07,19,12,44,20.70
2017,07,19,12,45,20.70
2017,07,19,12,46,20.70
2017,07,19,12,47,20.80
2017,07,19,12,48,20.90
2017,07,19,12,49,20.90
2017,07,19,12,50,21.00
2017,07,19,12,51,21.20
2017,07,19,12,52,21.40
2017,07,19,12,53,21.30
2017,07,19,12,54,21.30
2017,07,19,12,55,21.30
2017,07,19,12,56,21.30
2017,07,19,12,57,21.20
2017,07,19,12,58,21.20
2017,07,19,12,59,21.20
2017,07,19,13,00,21.30
2017,07,19,13,01,21.30
2017,07,19,13,02,21.30
2017,07,19,13,03,21.40
2017,07,19,13,04,21.40
2017,07,19,13,05,21.30
2017,07,19,13,06,21.30
2017,07,19,13,07,21.20
2017,07,19,13,08,21.10
2017,07,19,13,09,21.00
2017,07,19,13,10,20.90
2017,07,19,13,11,21.00
2017,07,19,13,12,21.00
2017,07,19,13,13,21.10
2017,07,19,13,14,21.20
2017,07,19,13,15,21.20
2017,07,19,13,16,21.20
2017,07,19,13,17,21.20
2017,07,19,13,18,21.20
2017,07,19,13,19,21.10
2017,07,19,13,20,21.00
2017,07,19,13,21,20.90
2017,07,19,13,22,20.90
2017,07,19,13,23,21.00
2017,07,19,13,24,21.00
2017,07,19,13,25,21.00
2017,07,19,13,26,21.00
2017,07,19,13,27,21.00
2017,07,19,13,28,21.00
2017,07,19,13,29,21.10
2017,07,19,13,30,21.20
2017,07,19,13,31,21.20
2017,07,19,13,32,21.30
2017,07,19,13,33,21.30
2017,07,19,13,34,21.30
2017,07,19,13,35,21.30
2017,07,19,13,36,21.30
2017,07,19,13,37,21.40
2017,07,19,13,38,21.50
2017,07,19,13,39,21.60
2017,07,19,13,40,21.70
2017,07,19,13,41,21.60
2017,07,19,13,42,21.50
2017,07,19,13,43,21.40
2017,07,19,13,44,21.30
2017,07,19,13,45,21.30
2017,07,19,13,46,21.40
2017,07,19,13,47,21.40
2017,07,19,13,48,21.40
2017,07,19,13,49,21.40
2017,07,19,13,50,21.40
2017,07,19,13,51,21.40
2017,07,19,13,52,21.50
2017,07,19,13,53,21.50
2017,07,19,13,54,21.50
2017,07,19,13,55,21.60
2017,07,19,13,56,21.60
2017,07,19,13,57,21.70
2017,07,19,13,58,21.70
2017,07,19,13,59,21.60
2017,07,19,14,00,21.70
2017,07,19,14,01,21.60
2017,07,19,14,02,21.50
2017,07,19,14,03,21.50
2017,07,19,14,04,21.50
2017,07,19,14,05,21.50
2017,07,19,14,06,21.50
2017,07,19,14,07,21.60
2017,07,19,14,08,21.60
2017,07,19,14,09,21.70
2017,07,19,14,10,21.70
2017,07,19,14,11,21.80
2017,07,19,14,12,21.80
2017,07,19,14,13,21.90
2017,07,19,14,14,21.80
2017,07,19,14,15,21.80
2017,07,19,14,16,21.80
2017,07,19,14,17,21.90
2017,07,19,14,18,21.90
2017,07,19,14,19,22.00
2017,07,19,14,20,22.00
2017,07,19,14,21,22.10
2017,07,19,14,22,22.10
2017,07,19,14,23,22.20
2017,07,19,14,24,22.20
2017,07,19,14,25,22.20
2017,07,19,14,26,22.10
2017,07,19,14,27,22.10
2017,07,19,14,28,22.10
2017,07,19,14,29,22.00
2017,07,19,14,30,21.90
2017,07,19,14,31,21.90
2017,07,19,14,32,22.00
2017,07,19,14,33,22.00
2017,07,19,14,34,22.00
2017,07,19,14,35,21.90
2017,07,19,14,36,21.90
2017,07,19,14,37,21.90
2017,07,19,14,38,21.90
2017,07,19,14,39,21.90
2017,07,19,14,40,22.00
2017,07,19,14,41,21.90
2017,07,19,14,42,21.80
2017,07,19,14,43,21.80
2017,07,19,14,44,21.80
2017,07,19,14,45,21.80
2017,07,19,14,46,21.90
2017,07,19,14,47,21.90
2017,07,19,14,48,21.90
2017,07,19,14,49,21.90
2017,07,19,14,50,21.90
2017,07,19,14,51,22.00
2017,07,19,14,52,22.00
2017,07,19,14,53,22.00
2017,07,19,14,54,22.00
2017,07,19,14,55,22.00
2017,07,19,14,56,22.00
2017,07,19,14,57,22.10
2017,07,19,14,58,22.00
2017,07,19,14,59,22.00
2017,07,19,15,00,21.90
2017,07,19,15,01,21.80
2017,07,19,15,02,21.80
2017,07,19,15,03,21.80
2017,07,19,15,04,21.90
2017,07,19,15,05,21.90
2017,07,19,15,06,21.90
2017,07,19,15,07,21.80
2017,07,19,15,08,21.90
2017,07,19,15,09,21.90
2017,07,19,15,10,21.80
2017,07,19,15,11,21.80
2017,07,19,15,12,21.70
2017,07,19,15,13,21.70
2017,07,19,15,14,21.70
2017,07,19,15,15,21.70
2017,07,19,15,16,21.70
2017,07,19,15,17,21.70
2017,07,19,15,18,21.70
2017,07,19,15,19,21.70
2017,07,19,15,20,21.70
2017,07,19,15,21,21.60
2017,07,19,15,22,21.50
2017,07,19,15,23,21.50
2017,07,19,15,24,21.50
2017,07,19,15,25,21.50
2017,07,19,15,26,21.50
2017,07,19,15,27,21.50
2017,07,19,15,28,21.50
2017,07,19,15,29,21.50
2017,07,19,15,30,21.50
2017,07,19,15,31,21.50
2017,07,19,15,32,21.50
2017,07,19,15,33,21.60
2017,07,19,15,34,21.70
2017,07,19,15,35,21.70
2017,07,19,15,36,21.70
2017,07,19,15,37,21.70
2017,07,19,15,38,21.70
2017,07,19,15,39,21.70
2017,07,19,15,40,21.70
2017,07,19,15,41,21.70
2017,07,19,15,42,21.60
2017,07,19,15,43,21.60
2017,07,19,15,44,21.60
2017,07,19,15,45,21.60
2017,07,19,15,46,21.60
2017,07,19,15,47,21.60
2017,07,19,15,48,21.60
2017,07,19,15,49,21.50
2017,07,19,15,50,21.60
2017,07,19,15,51,21.60
2017,07,19,15,52,21.70
2017,07,19,15,53,21.90
2017,07,19,15,54,22.10
2017,07,19,15,55,22.20
2017,07,19,15,56,22.30
2017,07,19,15,57,22.30
2017,07,19,15,58,22.30
2017,07,19,15,59,22.30
2017,07,19,16,00,22.30
2017,07,19,16,01,22.30
2017,07,19,16,02,22.40
2017,07,19,16,03,22.60
2017,07,19,16,04,22.60
2017,07,19,16,05,22.50
2017,07,19,16,06,22.40
2017,07,19,16,07,22.30
2017,07,19,16,08,22.30
2017,07,19,16,09,22.30
2017,07,19,16,10,22.30
2017,07,19,16,11,22.30
2017,07,19,16,12,22.30
2017,07,19,16,13,22.20
2017,07,19,16,14,22.20
2017,07,19,16,15,22.30
2017,07,19,16,16,22.40
2017,07,19,16,17,22.50
2017,07,19,16,18,22.60
2017,07,19,16,19,22.60
2017,07,19,16,20,22.50
2017,07,19,16,21,22.50
2017,07,19,16,22,22.60
2017,07,19,16,23,22.60
2017,07,19,16,24,22.60
2017,07,19,16,25,22.60
2017,07,19,16,26,22.70
2017,07,19,16,27,22.70
2017,07,19,16,28,22.60
2017,07,19,16,29,22.60
2017,07,19,16,30,22.70
2017,07,19,16,31,22.70
2017,07,19,16,32,22.70
2017,07,19,16,33,22.80
2017,07,19,16,34,22.80
2017,07,19,16,35,22.80
2017,07,19,16,36,22.80
2017,07,19,16,37,22.80
2017,07,19,16,38,22.80
2017,07,19,16,39,22.90
2017,07,19,16,40,23.00
2017,07,19,16,41,23.20
2017,07,19,16,42,23.20
2017,07,19,16,43,23.30
2017,07,19,16,44,23.40
2017,07,19,16,45,23.40
2017,07,19,16,46,23.50
2017,07,19,16,47,23.50
2017,07,19,16,48,23.50
2017,07,19,16,49,23.40
2017,07,19,16,50,23.30
2017,07,19,16,51,23.30
2017,07,19,16,52,23.30
2017,07,19,16,53,23.30
2017,07,19,16,54,23.20
2017,07,19,16,55,23.20
2017,07,19,16,56,23.10
2017,07,19,16,57,22.90
2017,07,19,16,58,22.80
2017,07,19,16,59,22.80
2017,07,19,17,00,22.90
2017,07,19,17,01,23.00
2017,07,19,17,02,23.10
2017,07,19,17,03,23.10
2017,07,19,17,04,23.00
2017,07,19,17,05,22.90
2017,07,19,17,06,22.90
2017,07,19,17,07,22.90
2017,07,19,17,08,22.90
2017,07,19,17,09,22.90
2017,07,19,17,10,22.90
2017,07,19,17,11,22.80
2017,07,19,17,12,22.70
2017,07,19,17,13,22.70
2017,07,19,17,14,22.70
2017,07,19,17,15,22.60
2017,07,19,17,16,22.60
2017,07,19,17,17,22.60
2017,07,19,17,18,22.60
2017,07,19,17,19,22.60